| time (UTC) | temp F | wind direction | speed MPH | gust MPH | rain 1hr in | rain 24hr in | rain mn in | humidity % | barometer mb |
| 20260504032641 | 48 | 175 | 0.0 | 0.0 | 0.00 | 0.00 | 0.00 | 93 | 1010.5 |
| 20260504032139 | 49 | 175 | 0.0 | 0.0 | 0.00 | 0.00 | 0.00 | 93 | 1010.4 |
| 20260504031636 | 49 | 175 | 0.0 | 0.0 | 0.00 | 0.00 | 0.00 | 93 | 1010.4 |
| 20260504031133 | 50 | 175 | 0.0 | 0.0 | 0.00 | 0.00 | 0.00 | 94 | 1010.5 |
| 20260504030637 | 51 | 175 | 0.0 | 0.0 | 0.00 | 0.00 | 0.00 | 94 | 1010.6 |
| 20260504030453 | 51 | 175 | 0.0 | 0.0 | 0.00 | 0.00 | 0.00 | 94 | 1010.6 |
| 20260504025632 | 51 | 175 | 0.0 | 0.0 | 0.00 | 0.00 | 0.00 | 94 | 1010.6 |
| 20260504025132 | 51 | 175 | 0.0 | 0.0 | 0.00 | 0.00 | 0.00 | 94 | 1010.6 |
| 20260504024632 | 51 | 175 | 0.0 | 0.0 | 0.00 | 0.00 | 0.00 | 95 | 1010.5 |
| 20260504024133 | 52 | 175 | 0.0 | 0.0 | 0.00 | 0.00 | 0.00 | 95 | 1010.5 |
| 20260504023632 | 52 | 175 | 0.0 | 0.0 | 0.00 | 0.00 | 0.00 | 95 | 1010.4 |
| 20260504023444 | 52 | 175 | 0.0 | 0.0 | 0.00 | 0.00 | 0.00 | 95 | 1010.4 |
| 20260504022630 | 52 | 175 | 0.0 | 0.0 | 0.00 | 0.00 | 0.00 | 95 | 1010.5 |
| 20260504022454 | 52 | 175 | 0.0 | 0.0 | 0.00 | 0.00 | 0.00 | 95 | 1010.5 |
| 20260504021949 | 52 | 175 | 0.0 | 0.0 | 0.00 | 0.00 | 0.00 | 95 | 1010.4 |
| 20260504021128 | 52 | 175 | 0.0 | 0.0 | 0.00 | 0.00 | 0.00 | 95 | 1010.4 |
| 20260504020627 | 52 | 175 | 0.0 | 0.0 | 0.00 | 0.00 | 0.00 | 95 | 1010.5 |
| 20260504020125 | 52 | 175 | 0.0 | 0.0 | 0.00 | 0.00 | 0.00 | 95 | 1010.5 |
| 20260504015622 | 52 | 175 | 0.0 | 0.0 | 0.00 | 0.00 | 0.00 | 95 | 1010.5 |
| 20260504015123 | 52 | 175 | 0.0 | 0.0 | 0.00 | 0.00 | 0.00 | 95 | 1010.5 |
| 20260504014627 | 52 | 175 | 0.0 | 0.0 | 0.00 | 0.00 | 0.00 | 95 | 1010.5 |
| 20260504014124 | 52 | 175 | 0.0 | 0.0 | 0.00 | 0.00 | 0.00 | 95 | 1010.5 |
| 20260504013623 | 52 | 175 | 0.0 | 0.0 | 0.00 | 0.00 | 0.00 | 95 | 1010.5 |
| 20260504013119 | 51 | 233 | 0.0 | 0.0 | 0.00 | 0.00 | 0.00 | 94 | 1010.5 |
| 20260504012616 | 52 | 233 | 0.0 | 0.0 | 0.00 | 0.00 | 0.00 | 94 | 1010.5 |
| 20260504012114 | 52 | 234 | 0.0 | 0.0 | 0.00 | 0.00 | 0.00 | 94 | 1010.5 |
| 20260504011612 | 52 | 234 | 0.0 | 0.0 | 0.00 | 0.00 | 0.00 | 94 | 1010.4 |
| 20260504011427 | 52 | 234 | 0.0 | 0.0 | 0.00 | 0.00 | 0.00 | 94 | 1010.4 |
| 20260504010737 | 52 | 236 | 0.0 | 0.0 | 0.00 | 0.00 | 0.00 | 95 | 1010.4 |
| 20260504010703 | 52 | 236 | 0.0 | 0.0 | 0.00 | 0.00 | 0.00 | 94 | 1010.4 |
| 20260504005606 | 52 | 188 | 0.0 | 0.0 | 0.00 | 0.00 | 0.00 | 95 | 1010.4 |
| 20260504005104 | 52 | 188 | 0.0 | 0.0 | 0.00 | 0.00 | 0.00 | 95 | 1010.5 |
| 20260504004603 | 52 | 188 | 0.0 | 0.0 | 0.00 | 0.00 | 0.00 | 95 | 1010.4 |
| 20260504004102 | 52 | 188 | 0.0 | 0.0 | 0.00 | 0.00 | 0.00 | 95 | 1010.4 |
| 20260504003602 | 52 | 185 | 0.0 | 0.0 | 0.00 | 0.00 | 0.00 | 94 | 1010.4 |
| 20260504003343 | 52 | 185 | 0.0 | 0.0 | 0.00 | 0.00 | 0.00 | 95 | 1010.4 |
| 20260504003253 | 52 | 185 | 0.0 | 0.0 | 0.00 | 0.00 | 0.00 | 95 | 1010.4 |
| 20260504003018 | 52 | 185 | 0.0 | 0.0 | 0.00 | 0.00 | 0.00 | 95 | 1010.4 |
| 20260504001604 | 52 | 185 | 0.0 | 0.0 | 0.00 | 0.00 | 0.00 | 95 | 1010.2 |
| 20260504001103 | 52 | 185 | 0.0 | 0.0 | 0.00 | 0.00 | 0.00 | 95 | 1010.2 |
| 20260504000601 | 52 | 215 | 0.0 | 0.0 | 0.00 | 0.00 | 0.00 | 95 | 1010.1 |
| 20260504000411 | 52 | 215 | 0.0 | 0.0 | 0.00 | 0.00 | 0.00 | 95 | 1010.1 |
| 20260503235601 | 52 | 215 | 0.0 | 0.0 | 0.00 | 0.00 | 0.00 | 95 | 1010.1 |
| 20260503235054 | 52 | 215 | 0.0 | 0.0 | 0.00 | 0.00 | 0.00 | 94 | 1010.1 |
| 20260503234554 | 52 | 215 | 0.0 | 0.0 | 0.00 | 0.00 | 0.00 | 94 | 1010.1 |
| 20260503234055 | 52 | 215 | 0.0 | 0.0 | 0.00 | 0.00 | 0.00 | 94 | 1010.1 |
| 20260503233553 | 52 | 215 | 0.0 | 0.0 | 0.00 | 0.00 | 0.00 | 94 | 1010.1 |
| 20260503233054 | 52 | 215 | 0.0 | 0.0 | 0.00 | 0.00 | 0.00 | 94 | 1010.1 |
| 20260503232553 | 52 | 215 | 0.0 | 0.0 | 0.00 | 0.00 | 0.00 | 94 | 1010.1 |
| 20260503232053 | 52 | 215 | 0.0 | 0.0 | 0.00 | 0.00 | 0.00 | 94 | 1010.1 |
| 20260503231555 | 52 | 215 | 0.0 | 0.0 | 0.00 | 0.00 | 0.00 | 94 | 1010.2 |
| 20260503231403 | 52 | 215 | 0.0 | 0.0 | 0.00 | 0.00 | 0.00 | 94 | 1010.1 |
| 20260503230924 | 52 | 215 | 0.0 | 0.0 | 0.00 | 0.00 | 0.00 | 94 | 1010.1 |
| 20260503230053 | 52 | 214 | 0.0 | 0.0 | 0.00 | 0.00 | 0.00 | 94 | 1010.1 |
| 20260503225549 | 52 | 214 | 0.0 | 0.0 | 0.00 | 0.00 | 0.00 | 94 | 1010.1 |
| 20260503225041 | 52 | 214 | 0.0 | 0.0 | 0.00 | 0.01 | 0.00 | 94 | 1010.1 |
| 20260503224858 | 52 | 223 | 0.0 | 0.0 | 0.00 | 0.01 | 0.00 | 94 | 1010.1 |
| 20260503224039 | 52 | 228 | 0.0 | 0.0 | 0.00 | 0.01 | 0.00 | 94 | 1010.1 |
| 20260503223846 | 52 | 228 | 0.0 | 0.0 | 0.00 | 0.01 | 0.00 | 94 | 1010.0 |
| 20260503223037 | 52 | 228 | 0.0 | 0.0 | 0.00 | 0.01 | 0.00 | 94 | 1010.0 |
| 20260503222538 | 52 | 228 | 0.0 | 0.0 | 0.00 | 0.01 | 0.00 | 94 | 1010.0 |
| 20260503222036 | 52 | 228 | 0.0 | 0.0 | 0.00 | 0.01 | 0.00 | 94 | 1010.0 |
| 20260503221535 | 52 | 228 | 0.0 | 0.0 | 0.00 | 0.01 | 0.00 | 94 | 1010.0 |
| 20260503221035 | 52 | 228 | 0.0 | 0.0 | 0.00 | 0.01 | 0.00 | 94 | 1010.0 |
| 20260503220534 | 52 | 228 | 0.0 | 0.0 | 0.00 | 0.01 | 0.00 | 94 | 1009.9 |
| 20260503220354 | 52 | 228 | 0.0 | 0.0 | 0.00 | 0.01 | 0.00 | 94 | 1010.0 |
| 20260503215534 | 52 | 228 | 0.0 | 0.0 | 0.00 | 0.01 | 0.00 | 94 | 1010.0 |
| 20260503215510 | 51 | 228 | 0.0 | 0.0 | 0.00 | 0.01 | 0.00 | 94 | 1009.9 |
| 20260503215129 | 51 | 228 | 0.0 | 0.0 | 0.00 | 0.01 | 0.00 | 94 | 1010.0 |
| 20260503214033 | 51 | 228 | 0.0 | 0.0 | 0.00 | 0.01 | 0.00 | 94 | 1009.9 |
| 20260503213533 | 51 | 228 | 0.0 | 0.0 | 0.00 | 0.01 | 0.00 | 93 | 1009.9 |
| 20260503213037 | 51 | 228 | 0.0 | 0.0 | 0.00 | 0.01 | 0.00 | 93 | 1009.8 |
| 20260503212538 | 51 | 228 | 0.0 | 0.0 | 0.00 | 0.01 | 0.00 | 93 | 1009.8 |
| 20260503212038 | 51 | 228 | 0.0 | 0.0 | 0.00 | 0.01 | 0.00 | 93 | 1009.8 |
| 20260503211536 | 51 | 228 | 0.0 | 0.0 | 0.00 | 0.01 | 0.00 | 93 | 1009.8 |
| 20260503211039 | 51 | 228 | 0.0 | 0.0 | 0.00 | 0.01 | 0.00 | 93 | 1009.8 |
| 20260503210533 | 51 | 228 | 0.0 | 0.0 | 0.00 | 0.01 | 0.00 | 93 | 1009.7 |
| 20260503210035 | 51 | 228 | 0.0 | 0.0 | 0.00 | 0.01 | 0.00 | 93 | 1009.7 |
| 20260503205533 | 51 | 228 | 0.0 | 0.0 | 0.00 | 0.01 | 0.00 | 93 | 1009.5 |
| 20260503205033 | 51 | 228 | 0.0 | 0.0 | 0.00 | 0.01 | 0.00 | 93 | 1009.5 |
| 20260503204534 | 51 | 228 | 0.0 | 0.0 | 0.00 | 0.01 | 0.00 | 93 | 1009.5 |
| 20260503204033 | 51 | 229 | 0.0 | 0.0 | 0.00 | 0.01 | 0.00 | 92 | 1009.4 |
| 20260503203535 | 51 | 229 | 0.0 | 0.0 | 0.00 | 0.01 | 0.00 | 92 | 1009.4 |
| 20260503203033 | 51 | 229 | 0.0 | 0.0 | 0.00 | 0.01 | 0.00 | 92 | 1009.3 |
| 20260503202852 | 51 | 229 | 0.0 | 0.0 | 0.00 | 0.01 | 0.00 | 92 | 1009.2 |
| 20260503202213 | 51 | 229 | 0.0 | 0.0 | 0.00 | 0.01 | 0.00 | 92 | 1009.0 |
| 20260503202137 | 51 | 229 | 0.0 | 0.0 | 0.00 | 0.01 | 0.00 | 92 | 1009.1 |
| 20260503201032 | 51 | 229 | 0.0 | 0.0 | 0.00 | 0.01 | 0.00 | 91 | 1009.0 |
| 20260503200718 | 51 | 229 | 0.0 | 0.0 | 0.00 | 0.01 | 0.00 | 90 | 1009.0 |
| 20260503200634 | 51 | 229 | 0.0 | 0.0 | 0.00 | 0.01 | 0.00 | 91 | 1009.0 |
| 20260503195857 | 51 | 229 | 0.0 | 0.0 | 0.00 | 0.01 | 0.00 | 90 | 1008.9 |
| 20260503195026 | 51 | 229 | 0.0 | 0.0 | 0.00 | 0.01 | 0.00 | 90 | 1008.8 |
| 20260503194525 | 52 | 229 | 0.0 | 0.0 | 0.00 | 0.01 | 0.00 | 90 | 1008.7 |
| 20260503194021 | 52 | 229 | 0.0 | 0.0 | 0.00 | 0.01 | 0.00 | 90 | 1008.7 |
| 20260503193518 | 52 | 229 | 0.0 | 0.0 | 0.00 | 0.02 | 0.00 | 90 | 1008.7 |
| 20260503193011 | 53 | 229 | 0.0 | 0.0 | 0.00 | 0.02 | 0.00 | 90 | 1008.6 |
| 20260503192507 | 53 | 229 | 0.0 | 0.0 | 0.00 | 0.02 | 0.00 | 90 | 1008.6 |
| 20260503192008 | 53 | 229 | 0.0 | 0.0 | 0.00 | 0.02 | 0.00 | 90 | 1008.7 |
| 20260503191512 | 54 | 229 | 0.0 | 0.0 | 0.00 | 0.02 | 0.00 | 90 | 1008.7 |
| 20260503191332 | 54 | 229 | 0.0 | 0.0 | 0.00 | 0.02 | 0.00 | 90 | 1008.6 |
| 20260503190505 | 54 | 229 | 0.0 | 0.0 | 0.00 | 0.02 | 0.00 | 90 | 1008.6 |
| 20260503190002 | 54 | 229 | 0.0 | 0.0 | 0.00 | 0.02 | 0.00 | 90 | 1008.6 |
| 20260503185458 | 54 | 229 | 0.0 | 0.0 | 0.00 | 0.03 | 0.00 | 90 | 1008.5 |
| 20260503185147 | 55 | 229 | 0.0 | 0.0 | 0.00 | 0.03 | 0.00 | 90 | 1008.5 |
| 20260503185103 | 55 | 229 | 0.0 | 0.0 | 0.00 | 0.03 | 0.00 | 90 | 1008.4 |
| 20260503183956 | 55 | 229 | 0.0 | 0.0 | 0.00 | 0.04 | 0.00 | 90 | 1008.5 |
| 20260503183458 | 55 | 228 | 0.0 | 0.0 | 0.00 | 0.04 | 0.00 | 90 | 1008.4 |
| 20260503182956 | 55 | 228 | 0.0 | 0.0 | 0.00 | 0.04 | 0.00 | 90 | 1008.3 |
| 20260503182455 | 55 | 229 | 0.0 | 0.0 | 0.00 | 0.05 | 0.00 | 90 | 1008.4 |
| 20260503181953 | 55 | 229 | 0.0 | 0.0 | 0.00 | 0.05 | 0.00 | 90 | 1008.3 |
| 20260503181452 | 55 | 238 | 0.0 | 0.0 | 0.00 | 0.06 | 0.00 | 90 | 1008.3 |
| 20260503180951 | 55 | 240 | 0.0 | 0.0 | 0.00 | 0.06 | 0.00 | 90 | 1008.4 |
| 20260503180450 | 55 | 239 | 0.0 | 0.0 | 0.00 | 0.06 | 0.00 | 90 | 1008.4 |
| 20260503175941 | 55 | 246 | 0.0 | 0.0 | 0.00 | 0.06 | 0.00 | 90 | 1008.3 |
| 20260503175440 | 55 | 252 | 0.0 | 0.0 | 0.00 | 0.07 | 0.00 | 90 | 1008.4 |
| 20260503174941 | 55 | 226 | 0.0 | 0.0 | 0.00 | 0.07 | 0.00 | 90 | 1008.4 |
| 20260503174438 | 55 | 239 | 0.0 | 0.0 | 0.00 | 0.08 | 0.00 | 89 | 1008.3 |
| 20260503173940 | 55 | 228 | 0.0 | 0.0 | 0.00 | 0.08 | 0.00 | 89 | 1008.3 |
| 20260503173439 | 56 | 229 | 0.0 | 0.0 | 0.00 | 0.09 | 0.00 | 89 | 1008.3 |
| 20260503172935 | 56 | 245 | 0.0 | 0.0 | 0.00 | 0.09 | 0.00 | 89 | 1008.3 |
| 20260503172434 | 56 | 252 | 0.0 | 0.0 | 0.00 | 0.09 | 0.00 | 88 | 1008.3 |
| 20260503171939 | 56 | 226 | 0.0 | 0.0 | 0.00 | 0.10 | 0.00 | 88 | 1008.3 |
| 20260503171433 | 56 | 231 | 0.0 | 0.0 | 0.00 | 0.10 | 0.00 | 88 | 1008.2 |
| 20260503170928 | 56 | 239 | 0.0 | 0.0 | 0.00 | 0.11 | 0.00 | 88 | 1008.2 |
| 20260503170429 | 57 | 253 | 0.0 | 0.0 | 0.00 | 0.12 | 0.00 | 88 | 1008.2 |
| 20260503150901 | 60 | 243 | 0.0 | 0.0 | 0.00 | 0.29 | 0.00 | 87 | 1007.9 |
| 20260503150354 | 59 | 182 | 0.0 | 0.0 | 0.00 | 0.30 | 0.00 | 87 | 1008.0 |
| 20260503131340 | 57 | 126 | 0.0 | 0.0 | 0.00 | 0.56 | 0.00 | 93 | 1008.4 |
| 20260503130837 | 57 | 243 | 0.0 | 0.0 | 0.00 | 0.57 | 0.00 | 94 | 1008.4 |
| 20260503130339 | 57 | 229 | 0.0 | 0.0 | 0.00 | 0.57 | 0.00 | 94 | 1008.4 |
| 20260503110818 | 56 | 133 | 0.0 | 0.0 | 0.00 | 0.58 | 0.00 | 95 | 1008.4 |
| 20260503110651 | 56 | 137 | 0.0 | 0.0 | 0.00 | 0.58 | 0.00 | 95 | 1008.4 |
| 20260503090235 | 53 | 90 | 0.0 | 0.0 | 0.00 | 0.58 | 0.00 | 96 | 1008.5 |
| 20260503081223 | 52 | 134 | 0.0 | 0.0 | 0.00 | 0.58 | 0.00 | 96 | 1008.6 |
| 20260503080725 | 52 | 132 | 0.0 | 0.0 | 0.00 | 0.58 | 0.00 | 96 | 1008.6 |
| 20260503080222 | 52 | 132 | 0.0 | 0.0 | 0.00 | 0.58 | 0.00 | 96 | 1008.6 |
| 20260503072710 | 52 | 100 | 0.0 | 0.0 | 0.00 | 0.58 | 0.00 | 96 | 1008.5 |
| 20260503072209 | 52 | 252 | 0.0 | 0.0 | 0.00 | 0.58 | 0.00 | 96 | 1008.5 |
| 20260503071705 | 52 | 252 | 0.0 | 0.0 | 0.00 | 0.58 | 0.00 | 96 | 1008.4 |
| 20260503071205 | 52 | 252 | 0.0 | 0.0 | 0.00 | 0.58 | 0.00 | 95 | 1008.4 |
| 20260503070706 | 52 | 252 | 0.0 | 0.0 | 0.00 | 0.58 | 0.00 | 95 | 1008.4 |
| 20260503070202 | 52 | 252 | 0.0 | 0.0 | 0.00 | 0.58 | 0.00 | 96 | 1008.4 |
| 20260503060150 | 51 | 252 | 0.0 | 0.0 | 0.00 | 0.58 | 0.00 | 96 | 1008.1 |
| 20260503054639 | 51 | 252 | 0.0 | 0.0 | 0.00 | 0.58 | 0.00 | 96 | 1008.1 |
| 20260503054139 | 51 | 252 | 0.0 | 0.0 | 0.00 | 0.58 | 0.00 | 96 | 1008.0 |
| 20260503053639 | 51 | 252 | 0.0 | 0.0 | 0.00 | 0.58 | 0.00 | 96 | 1008.0 |
| 20260503053139 | 51 | 252 | 0.0 | 0.0 | 0.00 | 0.58 | 0.00 | 96 | 1007.9 |
| 20260503052638 | 51 | 252 | 0.0 | 0.0 | 0.00 | 0.58 | 0.00 | 96 | 1007.9 |
| 20260503052135 | 51 | 252 | 0.0 | 0.0 | 0.00 | 0.58 | 0.00 | 96 | 1007.9 |
| 20260503051637 | 50 | 252 | 0.0 | 0.0 | 0.00 | 0.58 | 0.00 | 96 | 1007.9 |
| 20260503051137 | 50 | 252 | 0.0 | 0.0 | 0.00 | 0.58 | 0.00 | 96 | 1007.9 |
| 20260503050649 | 50 | 252 | 0.0 | 0.0 | 0.00 | 0.58 | 0.00 | 96 | 1007.9 |
| 20260503050136 | 50 | 252 | 0.0 | 0.0 | 0.00 | 0.58 | 0.00 | 96 | 1008.0 |
| 20260503045952 | 50 | 252 | 0.0 | 0.0 | 0.00 | 0.58 | 0.00 | 96 | 1008.0 |
| 20260503045139 | 50 | 252 | 0.0 | 0.0 | 0.00 | 0.58 | 0.00 | 95 | 1008.0 |
| 20260503044636 | 50 | 252 | 0.0 | 0.0 | 0.00 | 0.58 | 0.00 | 95 | 1008.0 |
| 20260503044136 | 50 | 252 | 0.0 | 0.0 | 0.00 | 0.58 | 0.00 | 95 | 1007.9 |
| 20260503043635 | 50 | 252 | 0.0 | 0.0 | 0.00 | 0.58 | 0.00 | 95 | 1007.9 |
| 20260503043135 | 51 | 252 | 0.0 | 0.0 | 0.00 | 0.58 | 0.00 | 95 | 1008.0 |
| 20260503042639 | 51 | 252 | 0.0 | 0.0 | 0.00 | 0.58 | 0.00 | 95 | 1008.0 |
| 20260503042135 | 51 | 252 | 0.0 | 0.0 | 0.00 | 0.58 | 0.00 | 95 | 1008.1 |
| 20260503041633 | 51 | 252 | 0.0 | 0.0 | 0.00 | 0.58 | 0.00 | 95 | 1008.1 |
| 20260503041134 | 51 | 252 | 0.0 | 0.0 | 0.00 | 0.58 | 0.00 | 95 | 1008.1 |
| 20260503040633 | 51 | 252 | 0.0 | 0.0 | 0.00 | 0.58 | 0.00 | 95 | 1008.2 |
| 20260503040133 | 51 | 252 | 0.0 | 0.0 | 0.00 | 0.58 | 0.00 | 95 | 1008.2 |
| 20260503035635 | 51 | 252 | 0.0 | 0.0 | 0.00 | 0.58 | 0.00 | 95 | 1008.2 |
| 20260503035134 | 51 | 252 | 0.0 | 0.0 | 0.00 | 0.58 | 0.00 | 95 | 1008.2 |
| 20260503034955 | 51 | 252 | 0.0 | 0.0 | 0.00 | 0.58 | 0.00 | 95 | 1008.2 |
| 20260503034135 | 51 | 252 | 0.0 | 0.0 | 0.00 | 0.58 | 0.00 | 95 | 1008.3 |
| 20260503033636 | 51 | 252 | 0.0 | 0.0 | 0.00 | 0.58 | 0.00 | 95 | 1008.3 |
| 20260503033134 | 51 | 252 | 0.0 | 0.0 | 0.00 | 0.58 | 0.00 | 95 | 1008.4 |